Location: ??????????
(44.2167°N, 135.5333°E)
Time: 14:49:17
(UTC+00:00)

Cosmos 2346 Rocket - Pass Details

Date: 15 June 2025
Orbit: 934 x 980 km, 82.9° (Epoch: 15 July)

Event Time Altitude Azimuth Distance (km) Brightness Sun altitude
Exits shadow 13:37:24 30° 189° (S) 1,656 5.2 -19.9°
Maximum altitude 13:40:41 87° 277° (W) 981 4.5 -20.1°
Drops below altitude 10° 13:46:56 10° 8° (N) 2,715 7.8 -20.5°
Sets 13:49:26 0° 8° (N) 3,659 8.6 -20.6°
